Flagstaff, AZ

4:38 AM MST on October 17, 2017 (GMT -0700)
Flagstaff Pulliam

Weather History for KFLG - March, 2012

Change the Weather History Date:

Monday, March 26, 2012

  Actual Average Record
Temperature  
Mean Temperature 41 °F 39 °F  
Max Temperature 53 °F 53 °F 73 °F (1988)
Min Temperature 28 °F 25 °F -8 °F (1902)
Degree Days  
Heating Degree Days 24 26  
Month to date heating degree days 745 738  
Since 1 July heating degree days 5435 5577  
Cooling Degree Days 0 0  
Month to date cooling degree days 0 0  
Year to date cooling degree days 0 0  
Moisture  
Dew Point 28 °F    
Average Humidity 56    
Maximum Humidity 85    
Minimum Humidity 27    
Precipitation  
Precipitation 0.00 in 0.06 in 1.10 in (1989)
Month to date precipitation 1.81 1.85  
Year to date precipitation 3.22 6.06  
Snow  
Snow 0.00 in 0.50 in 14.90 in (1991)
Month to date snowfall 26.4 18.4  
Since 1 July snowfall 92.5 91.6  
Snow Depth 0.00 in    
Sea Level Pressure  
Sea Level Pressure 29.93 in    
Wind  
Wind Speed 13 mph (SW)    
Max Wind Speed 30 mph    
Max Gust Speed 39 mph    
Visibility 10 miles    
Events      
T = Trace of Precipitation, MM = Missing Value Source: NWS Daily Summary

Daily Weather History Graph

Daily Weather History Graph

Search for Another Location

Airport or City:

Trip Planner

Search our weather history database for the weather conditions in past years. The results will help you decide how hot, cold, wet, or windy it might be!

Date:

Astronomy

Mar. 26, 2012 Rise Set
Actual Time 6:21 AM MST 6:43 PM MST
Civil Twilight 5:55 AM MST 7:09 PM MST
Nautical Twilight 5:25 AM MST 7:38 PM MST
Astronomical Twilight 4:55 AM MST 8:09 PM MST
Moon 8:22 AM MST (3/26) 10:46 PM MST (3/26)
Length of Visible Light 13h 13m
Length of Day
12h 22m
Waxing Crescent, 15% of the Moon is Illuminated
Mar 26
Waxing Crescent
Mar 30
First Quarter
Apr 6
Full
Apr 13
Last Quarter
Apr 21
New

Hourly Weather History & Observations

Time (MST) Temp. Windchill Dew Point Humidity Pressure Visibility Wind Dir Wind Speed Gust Speed Precip Events Conditions
12:57 AM 42.1 °F 31.9 °F 30.9 °F 65% 29.75 in 10.0 mi SSW 26.5 mph 35.7 mph N/A   Clear
1:57 AM 39.9 °F 30.2 °F 32.0 °F 73% 29.77 in 10.0 mi SSW 20.7 mph 32.2 mph N/A   Clear
2:57 AM 37.9 °F 28.9 °F 33.1 °F 83% 29.80 in 10.0 mi SSW 16.1 mph 24.2 mph N/A   Partly Cloudy
3:19 AM 39.2 °F 31.6 °F 33.8 °F 81% 29.97 in 10.0 mi South 12.7 mph 21.9 mph N/A   Mostly Cloudy
3:57 AM 37.9 °F 29.2 °F 32.0 °F 79% 29.80 in 10.0 mi SSW 15.0 mph 26.5 mph N/A   Overcast
4:57 AM 37.0 °F 26.4 °F 30.9 °F 79% 29.82 in 10.0 mi SSW 20.7 mph 33.4 mph N/A   Mostly Cloudy
5:57 AM 35.1 °F 25.2 °F 30.0 °F 82% 29.85 in 10.0 mi SSW 16.1 mph 32.2 mph N/A   Mostly Cloudy
6:57 AM 35.1 °F 24.8 °F 30.0 °F 82% 29.89 in 10.0 mi SSW 17.3 mph 31.1 mph N/A   Mostly Cloudy
7:14 AM 35.6 °F 24.0 °F 30.2 °F 81% 30.02 in 10.0 mi SSW 23.0 mph 33.4 mph N/A   Scattered Clouds
7:24 AM 35.6 °F 25.2 °F 30.2 °F 81% 30.04 in 10.0 mi SSW 18.4 mph 34.5 mph N/A   Mostly Cloudy
7:57 AM 37.0 °F 27.4 °F 30.0 °F 76% 29.93 in 10.0 mi SSW 17.3 mph 31.1 mph N/A   Mostly Cloudy
8:57 AM 39.0 °F 29.0 °F 30.0 °F 70% 29.93 in 10.0 mi SW 20.7 mph 32.2 mph N/A   Scattered Clouds
9:57 AM 42.1 °F 33.6 °F 28.9 °F 60% 29.94 in 10.0 mi WSW 18.4 mph 28.8 mph N/A   Clear
10:57 AM 46.0 °F 39.0 °F 25.0 °F 44% 29.92 in 10.0 mi WSW 17.3 mph 25.3 mph N/A   Clear
11:57 AM 48.0 °F - 21.9 °F 36% 29.91 in 10.0 mi WSW 18.4 mph 32.2 mph N/A   Clear
12:57 PM 50.0 °F - 18.0 °F 28% 29.91 in 10.0 mi West 11.5 mph 21.9 mph N/A   Clear
1:57 PM 51.1 °F - 23.0 °F 33% 29.90 in 10.0 mi SW 12.7 mph 25.3 mph N/A   Clear
2:57 PM 52.0 °F - 27.0 °F 38% 29.91 in 10.0 mi SW 15.0 mph 23.0 mph N/A   Clear
3:57 PM 51.1 °F - 27.0 °F 39% 29.91 in 10.0 mi SSW 12.7 mph 20.7 mph N/A   Clear
4:57 PM 51.1 °F - 27.0 °F 39% 29.94 in 10.0 mi SW 13.8 mph - N/A   Clear
5:57 PM 48.0 °F - 28.0 °F 46% 29.96 in 10.0 mi SSW 10.4 mph - N/A   Clear
6:57 PM 45.0 °F 41.2 °F 28.9 °F 53% 29.99 in 10.0 mi WSW 6.9 mph - N/A   Clear
7:57 PM 41.0 °F - 28.9 °F 62% 30.01 in 10.0 mi Calm Calm - N/A   Clear
8:57 PM 35.1 °F - 28.0 °F 76% 30.05 in 10.0 mi Calm Calm - N/A   Clear
9:57 PM 32.0 °F - 27.0 °F 82% 30.06 in 10.0 mi Calm Calm - N/A   Clear
10:57 PM 30.9 °F - 27.0 °F 85% 30.04 in 10.0 mi Calm Calm - N/A   Clear
11:57 PM 28.0 °F - 25.0 °F 88% 30.04 in 10.0 mi Calm Calm - N/A   Clear